FW6766 Weather Reports


Display with metric or nautical units.
time (UTC)temp
F
wind
direction
speed
MPH
gust
MPH
rain 1hr
in
rain 24hr
in
rain mn
in
humidity
%
barometer
mb
20260904073516 73 0.0 0.0 0.00 0.00 0.00 92 1018.4
20260904072515 73 0.0 0.0 0.00 0.00 0.00 92 1018.3
20260904071516 74 0.0 0.0 0.00 0.00 0.00 92 1018.4
20260904070515 74 0.0 0.0 0.00 0.00 0.00 92 1018.3
20260904065517 74 0.0 0.0 0.00 0.00 0.00 91 1018.2
20260904064517 74 0.0 0.0 0.00 0.00 0.00 91 1018.3
20260904063517 74 0.0 0.0 0.00 0.00 0.00 91 1018.4
20260904062518 74 0.0 0.0 0.00 0.00 0.00 91 1018.4
20260904061517 74 0.0 0.0 0.00 0.00 0.00 91 1018.4
20260904060517 74 0.0 0.0 0.00 0.00 0.00 90 1018.4
20260904055517 75 0.0 0.0 0.00 0.00 0.00 90 1018.6
20260904054517 75 0.0 0.0 0.00 0.00 0.00 89 1018.6
20260904053537 75 0.0 0.0 0.00 0.00 0.00 89 1018.5
20260904052517 75 0.0 0.0 0.00 0.00 0.00 89 1018.5
20260904051518 75 0.0 0.0 0.00 0.00 0.00 90 1018.6
20260904050517 75 0.0 0.0 0.00 0.00 0.00 90 1018.7
20260904045517 75 0.0 0.0 0.00 0.00 0.00 90 1018.7
20260904044517 75 0.0 0.0 0.00 0.00 0.00 90 1018.9
20260904043517 75 0.0 0.0 0.00 0.00 0.00 89 1018.9
20260904042517 75 0.0 0.0 0.00 0.00 0.00 89 1018.8
20260904041537 75 0.0 0.0 0.00 0.00 0.00 89 1018.7
20260904040517 76 0.0 0.0 0.00 0.00 0.00 89 1018.7
20260904035537 76 0.0 0.0 0.00 0.00 0.00 88 1018.8
20260904034517 76 0.0 0.0 0.00 0.00 0.00 88 1018.7
20260904033537 76 0.0 0.0 0.00 0.00 0.00 88 1018.8
20260904032517 76 0.0 0.0 0.00 0.00 0.00 87 1018.7
20260904031517 76 0.0 0.0 0.00 0.00 0.00 87 1018.7
20260904030518 76 0.0 0.0 0.00 0.00 0.00 87 1018.7
20260904025517 77 0.0 0.0 0.00 0.00 0.00 86 1018.8
20260904024517 77 0.0 0.0 0.00 0.00 0.00 85 1018.6
20260904023517 77 0.0 0.0 0.00 0.00 0.00 84 1018.6
20260904022517 77 0.0 0.0 0.00 0.00 0.00 84 1018.5
20260904021517 77 0.0 0.0 0.00 0.00 0.00 83 1018.3
20260904020517 78 0.0 0.0 0.00 0.00 0.00 83 1018.4
20260904015537 78 0.0 0.0 0.00 0.00 0.00 83 1018.3
20260904014517 78 0.0 0.0 0.00 0.00 0.00 82 1018.1
20260904013537 78 0.0 0.0 0.00 0.00 0.00 82 1018.2
20260904012517 79 0.0 0.0 0.00 0.00 0.00 81 1018.2
20260904011517 79 0.0 0.0 0.00 0.00 0.00 80 1018.0
20260904010536 79 0.0 0.0 0.00 0.00 0.00 79 1017.9
20260904005517 79 0.0 2.0 0.00 0.00 0.00 79 1017.7
20260904004517 80 0.0 0.0 0.00 0.00 0.00 78 1017.4
20260904003516 81 0.0 1.0 0.00 0.00 0.00 76 1017.5
20260904002516 81 0.0 0.0 0.00 0.00 0.00 74 1017.3
20260904001517 82 0.0 0.0 0.00 0.00 0.00 73 1017.2
20260904000517 83 0.0 1.0 0.00 0.00 0.00 72 1017.1
20260903235516 83 0.0 2.0 0.00 0.00 0.00 70 1017.1
20260903234518 84 203 2.0 5.0 0.00 0.00 0.00 68 1017.4
20260903233516 85 203 2.0 3.0 0.00 0.00 0.00 67 1017.4
20260903232516 86 203 3.0 8.0 0.00 0.00 0.00 64 1017.5
20260903231516 87 203 3.0 8.0 0.00 0.00 0.00 62 1017.5
20260903230536 88 203 1.0 7.0 0.00 0.00 0.00 60 1016.9
20260903225516 89 0.0 0.0 0.00 0.00 0.00 59 1016.9
20260903224516 89 0.0 2.0 0.00 0.00 0.00 60 1016.9
20260903223517 91 0.0 0.0 0.00 0.00 0.00 57 1016.9
20260903222516 92 0.0 1.0 0.00 0.00 0.00 56 1016.9
20260903221516 93 0.0 2.0 0.00 0.00 0.00 55 1016.9
20260903220536 93 0.0 1.0 0.00 0.00 0.00 55 1016.8
20260903215516 94 0.0 2.0 0.00 0.00 0.00 55 1016.9
20260903214516 94 0.0 1.0 0.00 0.00 0.00 52 1016.7
20260903213516 93 0.0 1.0 0.00 0.00 0.00 50 1016.7
20260903212516 93 0.0 2.0 0.00 0.00 0.00 53 1016.9
20260903211537 92 0.0 0.0 0.00 0.00 0.00 53 1016.9
20260903210516 93 0.0 1.0 0.00 0.00 0.00 55 1017.1
20260903205516 94 0.0 1.0 0.00 0.00 0.00 53 1017.1
20260903204516 94 0.0 0.0 0.00 0.00 0.00 51 1017.2
20260903203516 94 0.0 0.0 0.00 0.00 0.00 51 1017.3
20260903202515 96 0.0 0.0 0.00 0.00 0.00 50 1017.6
20260903201517 96 0.0 0.0 0.00 0.00 0.00 47 1017.6
20260903200536 95 0.0 1.0 0.00 0.00 0.00 51 1017.8
20260903195516 95 45 1.0 4.0 0.00 0.00 0.00 49 1017.9
20260903194515 94 68 1.0 3.0 0.00 0.00 0.00 53 1017.9
20260903193515 94 0.0 1.0 0.00 0.00 0.00 53 1018.2
20260903192515 95 0.0 2.0 0.00 0.00 0.00 51 1018.3
20260903191536 94 0.0 1.0 0.00 0.00 0.00 51 1018.5
20260903190515 94 0.0 3.0 0.00 0.00 0.00 53 1018.5
20260903185516 94 0.0 3.0 0.00 0.00 0.00 52 1018.6
20260903184538 95 0.0 2.0 0.00 0.00 0.00 52 1018.6
20260903183518 94 0.0 1.0 0.00 0.00 0.00 54 1018.8
20260903182517 93 0.0 1.0 0.00 0.00 0.00 53 1018.9
20260903181517 94 0.0 0.0 0.00 0.00 0.00 50 1019.0
20260903180518 94 0.0 1.0 0.00 0.00 0.00 56 1019.1
20260903175518 93 0.0 2.0 0.00 0.00 0.00 54 1019.2
20260903174517 92 0.0 2.0 0.00 0.00 0.00 57 1019.2
20260903173537 91 0.0 1.0 0.00 0.00 0.00 63 1019.4
20260903172517 91 0.0 0.0 0.00 0.00 0.00 62 1019.5
20260903171517 92 0.0 0.0 0.00 0.00 0.00 56 1019.7
20260903170517 93 0.0 2.0 0.00 0.00 0.00 55 1019.8
20260903165538 91 0.0 1.0 0.00 0.00 0.00 57 1019.9
20260903164537 91 0.0 0.0 0.00 0.00 0.00 60 1020.0
20260903163517 93 0.0 1.0 0.00 0.00 0.00 57 1020.2
20260903162517 93 0.0 2.0 0.00 0.00 0.00 57 1020.4
20260903161537 92 0.0 2.0 0.00 0.00 0.00 56 1020.4
20260903160517 92 338 1.0 3.0 0.00 0.00 0.00 56 1020.5
20260903155518 91 338 1.0 4.0 0.00 0.00 0.00 59 1020.5
20260903154517 90 0.0 0.0 0.00 0.00 0.00 61 1020.5
20260903153517 89 0.0 1.0 0.00 0.00 0.00 64 1020.4
20260903152517 88 0.0 2.0 0.00 0.00 0.00 67 1020.4
20260903151517 86 0.0 2.0 0.00 0.00 0.00 70 1020.4
20260903150537 85 68 1.0 3.0 0.00 0.00 0.00 73 1020.3
20260903145517 84 0.0 2.0 0.00 0.00 0.00 76 1020.3
20260903144518 83 0.0 2.0 0.00 0.00 0.00 75 1020.2
20260903143517 83 0 1.0 4.0 0.00 0.00 0.00 77 1020.3
20260903142517 82 0.0 3.0 0.00 0.00 0.00 80 1020.2
20260903141516 81 68 1.0 4.0 0.00 0.00 0.00 79 1020.3
20260903140536 80 0.0 0.0 0.00 0.00 0.00 82 1020.2
20260903135517 79 0.0 0.0 0.00 0.00 0.00 85 1020.2
20260903134517 78 0.0 0.0 0.00 0.00 0.00 86 1020.1
20260903133537 77 0.0 0.0 0.00 0.00 0.00 88 1020.1
20260903132536 76 0.0 2.0 0.00 0.00 0.00 89 1020.2
20260903131517 76 0.0 3.0 0.00 0.00 0.00 92 1020.3
20260903130516 75 0.0 2.0 0.00 0.00 0.00 93 1020.4
20260903125517 75 0.0 3.0 0.00 0.00 0.00 94 1020.2
20260903124537 74 0.0 2.0 0.00 0.00 0.00 95 1020.3
20260903123517 74 0.0 0.0 0.00 0.00 0.00 96 1020.2
20260903122516 74 0.0 1.0 0.00 0.00 0.00 95 1020.2
20260903121516 73 0.0 0.0 0.00 0.00 0.00 96 1020.2
20260903120516 73 0.0 0.0 0.00 0.00 0.00 95 1020.3
20260903115516 72 0.0 0.0 0.00 0.00 0.00 95 1020.2
20260903114516 72 0.0 0.0 0.00 0.00 0.00 94 1020.0
20260903113516 72 0.0 0.0 0.00 0.00 0.00 94 1019.9
20260903112517 72 0.0 0.0 0.00 0.00 0.00 94 1019.8
20260903111517 72 0.0 0.0 0.00 0.00 0.00 94 1019.8
20260903110517 73 0.0 0.0 0.00 0.00 0.00 94 1019.6
20260903105516 73 0.0 0.0 0.00 0.00 0.00 94 1019.6
20260903104516 73 0.0 0.0 0.00 0.00 0.00 94 1019.5
20260903103516 73 0.0 0.0 0.00 0.00 0.00 93 1019.5
20260903102516 73 0.0 0.0 0.00 0.00 0.00 93 1019.5
20260903101517 73 0.0 0.0 0.00 0.00 0.00 93 1019.5
20260903100617 73 0.0 0.0 0.00 0.00 0.00 93 1019.3
20260903095516 73 0.0 0.0 0.00 0.00 0.00 93 1019.4
20260903094516 73 0.0 0.0 0.00 0.00 0.00 93 1019.3
20260903093516 73 0.0 0.0 0.00 0.00 0.00 93 1019.3
20260903092516 73 0.0 0.0 0.00 0.00 0.00 93 1019.3
20260903091517 73 0.0 0.0 0.00 0.00 0.00 93 1019.3
20260903090517 73 0.0 0.0 0.00 0.00 0.00 93 1019.4
20260903085516 73 0.0 0.0 0.00 0.00 0.00 93 1019.6
20260903084516 73 0.0 0.0 0.00 0.00 0.00 93 1019.6
20260903083516 73 0.0 0.0 0.00 0.00 0.00 93 1019.7
20260903082516 73 0.0 0.0 0.00 0.00 0.00 93 1019.6
20260903081515 73 0.0 0.0 0.00 0.00 0.00 93 1019.6
20260903080535 73 0.0 0.0 0.00 0.00 0.00 92 1019.4
20260903075516 73 0.0 0.0 0.00 0.00 0.00 92 1019.4
20260903074515 73 0.0 0.0 0.00 0.00 0.00 91 1019.3